Location: Leuk
(46.3174°N, 7.6341°E)
Time: 05:24:07
(UTC+00:00)

IDEFIX/ARIANE 42P - Pass Details

Date: 09 March 2021
Orbit: 784 x 803 km, 98.4° (Epoch: 18 April)

Event Time Altitude Azimuth Distance (km) Brightness Sun altitude
Rises 03:54:51 0° 1° (N) 3,300 6.0 -21.2°
Reaches altitude 10° 03:57:49 10° 344° (NNW) 2,363 5.0 -20.7°
Enters shadow 04:00:29 18° 314° (NW) 1,855 4.2 -20.2°
